ARIANE 1 DEB

Satellite information

Favourite Embed

Satellite Type and Status

DEBRISIN ORBIT

Key statistics

Satellite ARIANE 1 DEB at a glance.

Uptime

16795

Days in orbit

Revolutions

≈ 10.4

Per day

Orbit

MEO

Medium Earth Orbit

Inclination

17.8

Latest

Satellite identification and parameters

Extended collection of information and parameters for ARIANE 1 DEB.

Object identification

Identified? True

Debris? True

Object name: ARIANE 1 DEB

International designator: 1979-104J

Object number (NORAD): 25767

Object ID (CCSDS): 25767

Country: FRANCE (FR)

Current information (Y/N): Y

RCS size: MEDIUM

Orbital parameters

Period: 138.993 minutes

Inclination: 17.8112 deg

SMA: 8888.355 km

Apoapsis: 4707.942 km

Periapsis: 312.497 km

RAAN: 34.7879 deg

Eccentricy: 0.24725862

Argument of periapsis: 44.0152 deg

Mean anomaly: 333.256 deg

Mean motion: 10.36026113 rev/day

Mean motion (dot): 0.00049409 rev/day2

B* drag term: 0.003120762 1/REarth

Two-line elements (TLE)

Creation date: Dec. 17, 2025, 2:25 a.m.

Reference frame: TEME

Reference center: EARTH

Epoch: Dec. 16, 2025, 6:35 p.m. UTC

TLE line 0: 0 ARIANE 1 DEB

TLE line 1: 1 25767U 79104J 25350.77469865 .00049409 00000-0 31208-2 0 9997

TLE line 2: 2 25767 17.8112 34.7879 2472586 44.0152 333.2560 10.36026113364128

Live tracking on map

Real-time ground track for satellite ARIANE 1 DEB.

In-orbit conjunctions

A list of the most updated potential collisions computed for object ARIANE 1 DEB.

Target Orbit TCA Probability of collision Miss distance Type
ATLAS F R/B HEO 2024-09-11 16:25:58 TBA 4275.0 (m) ROCKET BODY

Associated space launch

Vehicle evaluation payload for the Ariane 1 launch vehicle

ARIANE 1 DEB was lifted into orbit during the mission ‘Ariane 1 | CAT 1’, on board a Ariane 1 space rocket.

The launch took place on Dec. 24, 1979, 5:14 p.m. from Ariane Launch Area 1 (ELV).

For more information about the launch, click the button.

Launch to space Ariane 1 | CAT 1
Ariane 1 | CAT 1

Agency: N/A

Status: Launch Successful

Launch date: Dec. 24, 1979, 5:14 p.m. UTC

Rocket: Ariane 1

Launch pad: Ariane Launch Area 1 (ELV)

Location: Guiana Space Centre, French Guiana

...

Latest news about this satellite

There are no fresh news available about this satellite. Check back as we update our databases every day.


Newsletter sign-up

Weekly statistics, charts and insights to help you stay on top of the space industry.